Valley City, ND

7:21 AM CST on November 21, 2019 (GMT -0600)
Valley City

Weather History for KBAC - August, 2019

Change the Weather History Date:

Monday, August 26, 2019

  Actual Average (KJMS) Record (KJMS)
Temperature  
Mean Temperature 66 °F -  
Max Temperature 73 °F 80 °F 100 °F (1976)
Min Temperature 59 °F 53 °F 36 °F (1915)
Cooling Degree Days 1    
Growing Degree Days 16 (Base 50)    
Moisture  
Dew Point 59 °F    
Average Humidity 86    
Maximum Humidity 100    
Minimum Humidity 53    
Precipitation  
Precipitation 0.00 in - - ()
Sea Level Pressure  
Sea Level Pressure 29.75 in    
Wind  
Wind Speed 10 mph ()    
Max Wind Speed 23 mph    
Max Gust Speed 32 mph    
Visibility 9.9 miles    
Events Thunderstorm    
Averages and records for this station are not official NWS values.
T = Trace of Precipitation, MM = Missing Value Source: Averaged Metar Reports

Daily Weather History Graph

Daily Weather History Graph

Search for Another Location

Airport or City:

Astronomy

Aug. 26, 2019 Rise Set
Actual Time 6:43 AM CDT 8:23 PM CDT
Civil Twilight 6:11 AM CDT 8:55 PM CDT
Nautical Twilight 5:32 AM CDT 9:34 PM CDT
Astronomical Twilight 4:49 AM CDT 10:16 PM CDT
Moon 1:55 AM CDT (8/26) 6:02 PM CDT (8/26)
Length of Visible Light 14h 43m
Length of Day
13h 39m
Waning Crescent, 19% of the Moon is Illuminated
Aug 26
Waning Crescent
Aug 30
New
Sep 5
First Quarter
Sep 13
Full
Sep 21
Last Quarter

Hourly Weather History & Observations

Time (CDT) Temp. Dew Point Humidity Pressure Visibility Wind Dir Wind Speed Gust Speed Precip Events Conditions
12:15 AM 60.8 °F 60.8 °F 100% 29.75 in 10.0 mi South 5.8 mph - N/A   Clear
12:35 AM 60.8 °F 60.8 °F 100% 29.75 in 10.0 mi South 8.1 mph - N/A   Clear
12:55 AM 59.0 °F 59.0 °F 100% 29.75 in 10.0 mi South 9.2 mph - N/A   Clear
1:15 AM 59.0 °F 59.0 °F 100% 29.75 in 10.0 mi South 5.8 mph - N/A   Clear
1:35 AM 59.0 °F 59.0 °F 100% 29.75 in 10.0 mi South 8.1 mph - N/A   Scattered Clouds
1:55 AM 59.0 °F 59.0 °F 100% 29.74 in 10.0 mi South 5.8 mph - N/A   Overcast
2:15 AM 60.8 °F 60.8 °F 100% 29.74 in 10.0 mi South 10.4 mph - N/A   Overcast
2:35 AM 60.8 °F 60.8 °F 100% 29.74 in 10.0 mi SSW 4.6 mph - N/A   Overcast
2:55 AM 60.8 °F 60.8 °F 100% 29.75 in 10.0 mi WSW 4.6 mph - N/A   Overcast
3:15 AM 60.8 °F 60.8 °F 100% 29.74 in 10.0 mi South 6.9 mph - N/A   Overcast
3:35 AM 60.8 °F 60.8 °F 100% 29.75 in 10.0 mi South 6.9 mph - N/A   Overcast
3:55 AM 60.8 °F 60.8 °F 100% 29.74 in 10.0 mi South 9.2 mph - N/A   Overcast
4:15 AM 60.8 °F 60.8 °F 100% 29.74 in 10.0 mi South 9.2 mph - N/A   Overcast
4:35 AM 60.8 °F 60.8 °F 100% 29.73 in 10.0 mi SSW 8.1 mph - N/A   Overcast
4:55 AM 60.8 °F 60.8 °F 100% 29.73 in 10.0 mi SW 6.9 mph - N/A   Overcast
5:15 AM 62.6 °F 62.6 °F 100% 29.72 in 10.0 mi South 4.6 mph - N/A   Overcast
5:35 AM 60.8 °F 60.8 °F 100% 29.73 in 8.0 mi SSW 5.8 mph - N/A   Mostly Cloudy
5:55 AM 60.8 °F 60.8 °F 100% 29.73 in 7.0 mi WSW 8.1 mph - N/A   Mostly Cloudy
6:15 AM 60.8 °F 60.8 °F 100% 29.73 in 7.0 mi SW 6.9 mph - N/A   Partly Cloudy
6:35 AM 60.8 °F 60.8 °F 100% 29.73 in 9.0 mi West 8.1 mph - N/A   Clear
6:55 AM 60.8 °F 60.8 °F 100% 29.72 in 10.0 mi West 10.4 mph - N/A   Clear
7:15 AM 60.8 °F 60.8 °F 100% 29.72 in 10.0 mi West 11.5 mph - N/A   Clear
7:35 AM 60.8 °F 60.8 °F 100% 29.73 in 10.0 mi West 13.8 mph - N/A   Clear
7:55 AM 60.8 °F 60.8 °F 100% 29.73 in 10.0 mi West 12.7 mph - N/A   Clear
8:15 AM 60.8 °F 60.8 °F 100% 29.73 in 10.0 mi WNW 12.7 mph - N/A   Clear
8:35 AM 60.8 °F 60.8 °F 100% 29.73 in 10.0 mi WNW 15.0 mph - N/A   Clear
8:55 AM 60.8 °F 60.8 °F 100% 29.74 in 10.0 mi WNW 13.8 mph - N/A   Clear
9:15 AM - - N/A% 29.74 in 10.0 mi WNW 12.7 mph 18.4 mph N/A   Clear
9:35 AM 60.8 °F 60.8 °F 100% 29.74 in 10.0 mi WNW 15.0 mph - N/A   Clear
9:55 AM 60.8 °F 60.8 °F 100% 29.74 in 10.0 mi WNW 17.3 mph 24.2 mph N/A   Mostly Cloudy
10:15 AM 60.8 °F 60.8 °F 100% 29.75 in 10.0 mi NW 12.7 mph 20.7 mph N/A   Overcast
10:35 AM 64.4 °F 64.4 °F 100% 29.76 in 10.0 mi NW 10.4 mph 18.4 mph N/A   Overcast
10:55 AM 66.2 °F 64.4 °F 94% 29.76 in 10.0 mi NW 11.5 mph 18.4 mph N/A   Overcast
11:15 AM 64.4 °F 64.4 °F 100% 29.76 in 10.0 mi NW 10.4 mph - N/A   Overcast
11:35 AM 66.2 °F 64.4 °F 94% 29.76 in 10.0 mi NW 13.8 mph 19.6 mph N/A   Overcast
11:55 AM 64.4 °F 64.4 °F 100% 29.76 in 10.0 mi NW 13.8 mph - N/A   Overcast
12:15 PM 66.2 °F 64.4 °F 94% 29.76 in 10.0 mi NW 16.1 mph - N/A   Mostly Cloudy
12:35 PM 68.0 °F 64.4 °F 88% 29.76 in 10.0 mi WNW 16.1 mph - N/A   Overcast
12:55 PM 69.8 °F 62.6 °F 78% 29.76 in 10.0 mi NW 19.6 mph - N/A   Mostly Cloudy
1:15 PM 68.0 °F 62.6 °F 83% 29.75 in 10.0 mi WNW 17.3 mph 25.3 mph N/A   Mostly Cloudy
1:55 PM 69.8 °F 60.8 °F 73% 29.75 in 10.0 mi WNW 17.3 mph 25.3 mph N/A   Mostly Cloudy
2:15 PM 71.6 °F 57.2 °F 60% 29.75 in 10.0 mi NW 23.0 mph 28.8 mph N/A   Partly Cloudy
2:35 PM 71.6 °F 59.0 °F 64% 29.74 in 10.0 mi WNW 18.4 mph 25.3 mph N/A   Scattered Clouds
2:55 PM 71.6 °F 59.0 °F 64% 29.74 in 10.0 mi NW 21.9 mph - N/A   Scattered Clouds
3:15 PM 73.4 °F 57.2 °F 57% 29.73 in 10.0 mi WNW 21.9 mph 29.9 mph N/A   Mostly Cloudy
3:35 PM 73.4 °F 55.4 °F 53% 29.73 in 10.0 mi NW 23.0 mph 29.9 mph N/A   Partly Cloudy
3:55 PM 73.4 °F 57.2 °F 57% 29.73 in 10.0 mi NW 21.9 mph 29.9 mph N/A   Clear
4:15 PM 73.4 °F 57.2 °F 57% 29.73 in 10.0 mi NW 20.7 mph 32.2 mph N/A   Mostly Cloudy
4:35 PM 68.0 °F 55.4 °F 64% 29.73 in 9.0 mi WNW 16.1 mph 23.0 mph N/A   Partly Cloudy
4:55 PM 69.8 °F 55.4 °F 60% 29.73 in 10.0 mi WNW 15.0 mph 24.2 mph N/A   Clear
5:15 PM 68.0 °F 57.2 °F 68% 29.73 in 10.0 mi WNW 12.7 mph 18.4 mph N/A   Clear
5:35 PM 69.8 °F 60.8 °F 73% 29.73 in 10.0 mi WNW 12.7 mph - N/A   Clear
5:55 PM 69.8 °F 59.0 °F 68% 29.74 in 10.0 mi West 12.7 mph 18.4 mph N/A   Clear
6:15 PM 71.6 °F 60.8 °F 69% 29.74 in 10.0 mi WNW 17.3 mph - N/A   Clear
6:35 PM 71.6 °F 57.2 °F 60% 29.75 in 10.0 mi WNW 17.3 mph 23.0 mph N/A   Clear
6:55 PM 69.8 °F 55.4 °F 60% 29.75 in 10.0 mi WNW 15.0 mph 21.9 mph N/A   Clear
7:15 PM 69.8 °F 57.2 °F 64% 29.76 in 10.0 mi WNW 10.4 mph - N/A   Clear
7:35 PM 69.8 °F 57.2 °F 64% 29.76 in 10.0 mi NW 10.4 mph 17.3 mph N/A   Scattered Clouds
7:55 PM 66.2 °F 50.0 °F 56% 29.76 in 10.0 mi WNW 9.2 mph - N/A   Partly Cloudy
8:15 PM 62.6 °F 51.8 °F 68% 29.76 in 10.0 mi WNW 5.8 mph - N/A   Clear
8:35 PM 62.6 °F 53.6 °F 72% 29.76 in 10.0 mi West 5.8 mph - N/A   Clear
8:55 PM 59.0 °F 59.0 °F 100% 29.77 in 10.0 mi West 9.2 mph - N/A Thunderstorm Thunderstorm
9:15 PM 59.0 °F 59.0 °F 100% 29.77 in 10.0 mi West 10.4 mph - N/A   Clear
9:35 PM 62.6 °F 57.2 °F 82% 29.78 in 10.0 mi WNW 9.2 mph 21.9 mph N/A   Partly Cloudy
9:55 PM 60.8 °F 57.2 °F 88% 29.78 in 10.0 mi WNW 9.2 mph - N/A   Clear
10:15 PM 59.0 °F 57.2 °F 94% 29.78 in 10.0 mi West 5.8 mph - N/A   Clear
10:35 PM 60.8 °F 55.4 °F 82% 29.79 in 10.0 mi West 11.5 mph 18.4 mph N/A   Clear
10:55 PM 60.8 °F 55.4 °F 82% 29.79 in 10.0 mi WNW 11.5 mph 18.4 mph N/A   Clear
11:15 PM 60.8 °F 55.4 °F 82% 29.79 in 10.0 mi WNW 13.8 mph - N/A   Clear
11:35 PM 60.8 °F 55.4 °F 82% 29.78 in 10.0 mi WNW 15.0 mph - N/A   Clear
11:55 PM 59.0 °F 53.6 °F 82% 29.78 in 10.0 mi West 12.7 mph 20.7 mph N/A   Partly Cloudy